Test XHTML 1.0 Strict Page for WU-History Testing
Histórico de la Estación METEOCORUÑA
 
Diario Datos del Octubre 19, 2018 Unidades:  Metrico    Inglés   Ambos
« Prev Dia
Sig Dia »
Diario Semanal Mensual Anual Rango
  Actual: Max: Min: Media:
Temp: -8.5 °C -17.8 °C -9.6 °C -9.2 °C
Rocío: -9.3 °C -17.8 °C -9.9 °C -9.6 °C
Humedad: 91 % Humidity % 89 % 95 %
Vel. viento: 12.9 km/h 0 km/h 2.6 km/h 14.3 km/h
Racha: 31.1 km/h 0 km/h - -
Viento:North - - SW
Presión: 34493.2 hPa 0 hPa 34449.2 hPa -
Lluvia: 0 mm      
Historical Graphs
 
 
Busqueda de Octubre 19, 2018
Hora Temp Rocío Presión Viento Vel. viento Racha Humedad Ratio lluvia (/hora) Radiación
-17.8 °C -17.8 °C 0 hPa Calm     Humidity % 0 mm SolarRadiationWatts/m^2 W/m2
00:00 -9.4 °C -9.8 °C 34496.6 hPa North 12.9 km/h 31.1 km/h 96 % 0 mm 0.00 W/m2
00:05 -9.4 °C -9.8 °C 34500 hPa NE 10.3 km/h 20.8 km/h 96 % 0 mm 0.00 W/m2
00:10 -9.4 °C -9.8 °C 34496.6 hPa North 7.7 km/h 38.8 km/h 96 % 0 mm 0.00 W/m2
00:15 -9.5 °C -9.8 °C 34496.6 hPa NNE 10.3 km/h 31.1 km/h 96 % 0 mm 0.00 W/m2
00:20 -9.4 °C -9.8 °C 34496.6 hPa NNE 10.3 km/h 18.2 km/h 96 % 0 mm 0.00 W/m2
00:25 -9.4 °C -9.8 °C 34496.6 hPa North 7.7 km/h 25.9 km/h 96 % 0 mm 0.00 W/m2
00:30 -9.4 °C -9.8 °C 34496.6 hPa NNE 10.3 km/h 23.3 km/h 96 % 0 mm 0.00 W/m2
00:35 -9.4 °C -9.8 °C 34496.6 hPa NE 10.3 km/h 23.3 km/h 96 % 0 mm 0.00 W/m2
00:40 -9.4 °C -9.8 °C 34493.2 hPa NNE 10.3 km/h 23.3 km/h 96 % 0 mm 0.00 W/m2
00:45 -9.4 °C -9.8 °C 34493.2 hPa North 12.9 km/h 25.9 km/h 96 % 0 mm 0.00 W/m2
00:50 -9.3 °C -9.7 °C 34493.2 hPa NNE 15.6 km/h 36.2 km/h 96 % 0 mm 0.00 W/m2
00:55 -9.3 °C -9.7 °C 34496.6 hPa North 15.6 km/h 28.5 km/h 96 % 0 mm 0.00 W/m2
01:00 -9.3 °C -9.7 °C 34496.6 hPa NNW 12.9 km/h 31.1 km/h 96 % 0 mm 0.00 W/m2
01:05 -9.3 °C -9.7 °C 34493.2 hPa NW 12.9 km/h 41.4 km/h 96 % 0 mm 0.00 W/m2
01:10 -9.3 °C -9.6 °C 34486.4 hPa NW 23.3 km/h 51.8 km/h 96 % 0 mm 0.00 W/m2
01:15 -9.3 °C -9.7 °C 34486.4 hPa NW 28.5 km/h 46.7 km/h 96 % 0 mm 0.00 W/m2
01:20 -9.3 °C -9.6 °C 34493.2 hPa NNW 25.9 km/h 46.7 km/h 97 % 0 mm 0.00 W/m2
01:25 -9.3 °C -9.6 °C 34493.2 hPa NW 23.3 km/h 38.8 km/h 97 % 0 mm 0.00 W/m2
01:30 -9.3 °C -9.6 °C 34489.8 hPa NNW 23.3 km/h 44.1 km/h 97 % 0 mm 0.00 W/m2
01:35 -9.3 °C -9.6 °C 34489.8 hPa NNW 25.9 km/h 46.7 km/h 97 % 0 mm 0.00 W/m2
01:40 -9.3 °C -9.6 °C 34489.8 hPa NNW 23.3 km/h 31.1 km/h 97 % 0 mm 0.00 W/m2
01:45 -9.3 °C -9.6 °C 34493.2 hPa NNW 18.2 km/h 31.1 km/h 97 % 0 mm 0.00 W/m2
01:50 -9.3 °C -9.6 °C 34493.2 hPa NNW 15.6 km/h 41.4 km/h 97 % 0 mm 0.00 W/m2
01:55 -9.3 °C -9.6 °C 34493.2 hPa NNW 20.8 km/h 41.4 km/h 97 % 0 mm 0.00 W/m2
02:00 -9.3 °C -9.6 °C 34496.6 hPa North 23.3 km/h 28.5 km/h 97 % 0 mm 0.00 W/m2
02:05 -9.3 °C -9.6 °C 34493.2 hPa North 18.2 km/h 23.3 km/h 97 % 0 mm 0.00 W/m2
02:10 -9.3 °C -9.6 °C 34496.6 hPa North 12.9 km/h 25.9 km/h 97 % 0 mm 0.00 W/m2
02:15 -9.3 °C -9.6 °C 34493.2 hPa NNE 12.9 km/h 25.9 km/h 97 % 0 mm 0.00 W/m2
02:20 -9.4 °C -9.7 °C 34496.6 hPa North 10.3 km/h 31.1 km/h 97 % 0 mm 0.00 W/m2
02:25 -9.4 °C -9.8 °C 34496.6 hPa NNE 10.3 km/h 20.8 km/h 96 % 0 mm 0.00 W/m2
02:30 -9.4 °C -9.8 °C 34496.6 hPa North 10.3 km/h 18.2 km/h 96 % 0 mm 0.00 W/m2
02:35 -9.4 °C -9.8 °C 34500 hPa NNE 7.7 km/h 20.8 km/h 96 % 0 mm 0.00 W/m2
02:40 -9.4 °C -9.8 °C 34500 hPa NNW 7.7 km/h 23.3 km/h 96 % 0 mm 0.00 W/m2
02:45 -9.5 °C -9.8 °C 34496.6 hPa North 10.3 km/h 15.6 km/h 96 % 0 mm 0.00 W/m2
02:50 -9.5 °C -9.8 °C 34496.6 hPa North 5.1 km/h 12.9 km/h 97 % 0 mm 0.00 W/m2
02:55 -9.6 °C -9.8 °C 34496.6 hPa North 2.6 km/h 10.3 km/h 97 % 0 mm 0.00 W/m2
03:00 -9.6 °C -9.8 °C 34500 hPa North 2.6 km/h 7.7 km/h 97 % 0 mm 0.00 W/m2
03:05 -9.6 °C -9.9 °C 34500 hPa North 2.6 km/h 7.7 km/h 96 % 0 mm 0.00 W/m2
03:10 -9.6 °C -9.8 °C 34496.6 hPa NNE 5.1 km/h 12.9 km/h 97 % 0 mm 0.00 W/m2
03:15 -9.6 °C -9.8 °C 34496.6 hPa NNE 5.1 km/h 20.8 km/h 97 % 0 mm 0.00 W/m2
03:20 -9.6 °C -9.8 °C 34500 hPa NE 5.1 km/h 12.9 km/h 97 % 0 mm 0.00 W/m2
03:25 -9.6 °C -9.9 °C 34500 hPa NNE 7.7 km/h 18.2 km/h 96 % 0 mm 0.00 W/m2
03:30 -9.5 °C -9.8 °C 34500 hPa North 7.7 km/h 20.8 km/h 97 % 0 mm 0.00 W/m2
03:35 -9.5 °C -9.8 °C 34500 hPa NNW 10.3 km/h 23.3 km/h 97 % 0 mm 0.00 W/m2
03:40 -9.5 °C -9.8 °C 34500 hPa NNE 12.9 km/h 15.6 km/h 97 % 0 mm 0.00 W/m2
03:45 -9.5 °C -9.8 °C 34500 hPa NNE 7.7 km/h 12.9 km/h 97 % 0 mm 0.00 W/m2
03:50 -9.5 °C -9.8 °C 34496.6 hPa NNE 7.7 km/h 12.9 km/h 97 % 0 mm 0.00 W/m2
03:55 -9.5 °C -9.8 °C 34496.6 hPa NNE 7.7 km/h 18.2 km/h 97 % 0 mm 0.00 W/m2
04:00 -9.5 °C -9.8 °C 34489.8 hPa NNE 10.3 km/h 23.3 km/h 97 % 0 mm 0.00 W/m2
04:05 -9.4 °C -9.8 °C 34489.8 hPa NE 10.3 km/h 18.2 km/h 96 % 0 mm 0.00 W/m2
04:10 -9.4 °C -9.8 °C 34489.8 hPa NNE 7.7 km/h 18.2 km/h 96 % 0 mm 0.00 W/m2
04:15 -9.3 °C -9.7 °C 34489.8 hPa NNE 7.7 km/h 12.9 km/h 96 % 0 mm 0.00 W/m2
04:20 -9.3 °C -9.6 °C 34486.4 hPa NNW 7.7 km/h 18.2 km/h 96 % 0 mm 0.00 W/m2
04:25 -9.2 °C -9.6 °C 34483 hPa North 5.1 km/h 12.9 km/h 96 % 0 mm 0.00 W/m2
04:30 -9.2 °C -9.6 °C 34476.3 hPa North 5.1 km/h 18.2 km/h 96 % 0 mm 0.00 W/m2
04:35 -9.2 °C -9.5 °C 34469.5 hPa NW 10.3 km/h 23.3 km/h 96 % 0 mm 0.00 W/m2
04:40 -9.1 °C -9.6 °C 34469.5 hPa NW 10.3 km/h 31.1 km/h 95 % 0 mm 0.00 W/m2
04:45 -9.1 °C -9.6 °C 34469.5 hPa NNW 12.9 km/h 25.9 km/h 95 % 0 mm 0.00 W/m2
04:50 -9.2 °C -9.7 °C 34466.1 hPa NNW 12.9 km/h 20.8 km/h 95 % 0 mm 0.00 W/m2
04:55 -9.3 °C -9.8 °C 34462.7 hPa North 10.3 km/h 23.3 km/h 95 % 0 mm 0.00 W/m2
05:00 -9.4 °C -9.8 °C 34459.3 hPa NNE 10.3 km/h 23.3 km/h 95 % 0 mm 0.00 W/m2
05:05 -9.4 °C -9.8 °C 34459.3 hPa NNE 10.3 km/h 18.2 km/h 96 % 0 mm 0.00 W/m2
05:10 -9.5 °C -9.9 °C 34455.9 hPa North 12.9 km/h 28.5 km/h 95 % 0 mm 0.00 W/m2
05:15 -9.5 °C -9.8 °C 34459.3 hPa North 15.6 km/h 25.9 km/h 96 % 0 mm 0.00 W/m2
05:20 -9.5 °C -9.8 °C 34459.3 hPa North 15.6 km/h 25.9 km/h 96 % 0 mm 0.00 W/m2
05:25 -9.4 °C -9.8 °C 34459.3 hPa North 15.6 km/h 20.8 km/h 96 % 0 mm 0.00 W/m2
05:30 -9.4 °C -9.8 °C 34455.9 hPa North 15.6 km/h 20.8 km/h 96 % 0 mm 0.00 W/m2
05:35 -9.4 °C -9.8 °C 34455.9 hPa North 15.6 km/h 23.3 km/h 96 % 0 mm 0.00 W/m2
05:40 -9.5 °C -9.8 °C 34455.9 hPa NNW 12.9 km/h 18.2 km/h 96 % 0 mm 0.00 W/m2
05:45 -9.5 °C -9.8 °C 34459.3 hPa NNW 12.9 km/h 23.3 km/h 96 % 0 mm 0.00 W/m2
05:50 -9.5 °C -9.8 °C 34455.9 hPa North 12.9 km/h 18.2 km/h 96 % 0 mm 0.00 W/m2
05:55 -9.6 °C -9.9 °C 34455.9 hPa NNW 12.9 km/h 23.3 km/h 96 % 0 mm 0.00 W/m2
06:00 -9.6 °C -9.9 °C 34452.6 hPa NNW 12.9 km/h 18.2 km/h 96 % 0 mm 0.00 W/m2
06:05 -9.6 °C -9.9 °C 34449.2 hPa NNW 12.9 km/h 18.2 km/h 96 % 0 mm 0.00 W/m2
06:10 -9.6 °C -9.9 °C 34452.6 hPa NNW 12.9 km/h 23.3 km/h 96 % 0 mm 0.00 W/m2
06:15 -9.5 °C -9.8 °C 34449.2 hPa NNW 12.9 km/h 20.8 km/h 96 % 0 mm 0.00 W/m2
06:20 -9.5 °C -9.8 °C 34449.2 hPa NNE 10.3 km/h 23.3 km/h 96 % 0 mm 0.00 W/m2
06:25 -9.5 °C -9.8 °C 34449.2 hPa NNE 10.3 km/h 15.6 km/h 96 % 0 mm 0.00 W/m2
06:30 -9.5 °C -9.8 °C 34452.6 hPa NNW 10.3 km/h 20.8 km/h 96 % 0 mm 0.00 W/m2
06:35 -9.6 °C -9.9 °C 34452.6 hPa NNW 10.3 km/h 25.9 km/h 96 % 0 mm 0.00 W/m2
06:40 -9.5 °C -9.8 °C 34452.6 hPa NNW 10.3 km/h 36.2 km/h 96 % 0 mm 0.00 W/m2
06:45 -9.5 °C -9.8 °C 34452.6 hPa NNW 18.2 km/h 38.8 km/h 96 % 0 mm 0.00 W/m2
06:50 -9.5 °C -9.8 °C 34452.6 hPa NW 20.8 km/h 25.9 km/h 96 % 0 mm 0.00 W/m2
06:55 -9.5 °C -9.8 °C 34459.3 hPa NW 18.2 km/h 31.1 km/h 96 % 0 mm 0.00 W/m2
07:00 -9.5 °C -9.8 °C 34462.7 hPa NNW 15.6 km/h 28.5 km/h 96 % 0 mm 0.00 W/m2
07:05 -9.5 °C -9.8 °C 34462.7 hPa NW 15.6 km/h 25.9 km/h 96 % 0 mm 0.00 W/m2
07:10 -9.5 °C -9.8 °C 34459.3 hPa NNW 15.6 km/h 44.1 km/h 96 % 0 mm 0.00 W/m2
07:15 -9.5 °C -9.8 °C 34462.7 hPa NW 18.2 km/h 36.2 km/h 96 % 0 mm 0.00 W/m2
07:20 -9.5 °C -9.8 °C 34466.1 hPa NW 20.8 km/h 33.6 km/h 96 % 0 mm 0.00 W/m2
07:25 -9.5 °C -9.8 °C 34466.1 hPa NNW 20.8 km/h 38.8 km/h 97 % 0 mm 0.00 W/m2
07:30 -9.4 °C -9.8 °C 34469.5 hPa NNW 20.8 km/h 36.2 km/h 96 % 0 mm 0.00 W/m2
07:35 -9.4 °C -9.7 °C 34469.5 hPa NNW 20.8 km/h 38.8 km/h 97 % 0 mm 0.00 W/m2
07:40 -9.4 °C -9.7 °C 34469.5 hPa NNW 23.3 km/h 36.2 km/h 97 % 0 mm 0.00 W/m2
07:45 -9.3 °C -9.6 °C 34469.5 hPa NNW 23.3 km/h 38.8 km/h 97 % 0 mm 0.00 W/m2
07:50 -9.4 °C -9.7 °C 34469.5 hPa NNW 23.3 km/h 33.6 km/h 97 % 0 mm 0.00 W/m2
07:55 -9.4 °C -9.7 °C 34472.9 hPa NNW 18.2 km/h 31.1 km/h 97 % 0 mm 0.00 W/m2
08:00 -9.4 °C -9.7 °C 34472.9 hPa NNW 15.6 km/h 33.6 km/h 97 % 0 mm 0.00 W/m2
08:05 -9.3 °C -9.6 °C 34476.3 hPa NNW 18.2 km/h 36.2 km/h 97 % 0 mm 0.00 W/m2
08:10 -9.3 °C -9.6 °C 34479.6 hPa NNW 18.2 km/h 28.5 km/h 97 % 0 mm 0.00 W/m2
08:15 -9.3 °C -9.6 °C 34479.6 hPa NNW 18.2 km/h 28.5 km/h 97 % 0 mm 0.00 W/m2
08:20 -9.3 °C -9.6 °C 34479.6 hPa NNW 15.6 km/h 28.5 km/h 97 % 0 mm 0.00 W/m2
08:25 -9.4 °C -9.7 °C 34483 hPa NNW 15.6 km/h 23.3 km/h 97 % 0 mm 0.00 W/m2
08:30 -9.3 °C -9.6 °C 34479.6 hPa NNW 15.6 km/h 31.1 km/h 97 % 0 mm 0.00 W/m2
08:35 -9.3 °C -9.6 °C 34483 hPa NNW 15.6 km/h 38.8 km/h 97 % 0 mm 0.00 W/m2
08:40 -9.3 °C -9.6 °C 34483 hPa NW 12.9 km/h 33.6 km/h 97 % 0 mm 0.00 W/m2
08:45 -9.3 °C -9.6 °C 34483 hPa NNW 15.6 km/h 38.8 km/h 97 % 0 mm 0.00 W/m2
08:50 -9.3 °C -9.6 °C 34483 hPa NW 18.2 km/h 51.8 km/h 97 % 0 mm 0.00 W/m2
08:55 -9.3 °C -9.6 °C 34483 hPa NNW 23.3 km/h 36.2 km/h 97 % 0 mm 0.00 W/m2
09:00 -9.3 °C -9.6 °C 34486.4 hPa NW 25.9 km/h 38.8 km/h 97 % 0 mm 5.00 W/m2
09:05 -9.3 °C -9.6 °C 34486.4 hPa NNW 23.3 km/h 44.1 km/h 97 % 0 mm 7.00 W/m2
09:10 -9.3 °C -9.6 °C 34489.8 hPa NNW 23.3 km/h 46.7 km/h 97 % 0 mm 11.00 W/m2
09:15 -9.3 °C -9.6 °C 34493.2 hPa NNW 25.9 km/h 44.1 km/h 97 % 0 mm 14.00 W/m2
09:20 -9.3 °C -9.6 °C 34493.2 hPa NNW 23.3 km/h 36.2 km/h 97 % 0 mm 19.00 W/m2
09:25 -9.3 °C -9.6 °C 34493.2 hPa NNW 20.8 km/h 36.2 km/h 97 % 0 mm 21.00 W/m2
09:30 -9.3 °C -9.6 °C 34493.2 hPa NW 20.8 km/h 31.1 km/h 97 % 0 mm 25.00 W/m2
09:35 -9.3 °C -9.6 °C 34493.2 hPa NNW 18.2 km/h 33.6 km/h 97 % 0 mm 26.00 W/m2
09:40 -9.3 °C -9.6 °C 34489.8 hPa NNW 15.6 km/h 41.4 km/h 97 % 0 mm 32.00 W/m2
09:45 -9.3 °C -9.6 °C 34489.8 hPa NNW 15.6 km/h 25.9 km/h 97 % 0 mm 32.00 W/m2
09:50 -9.3 °C -9.6 °C 34493.2 hPa NNW 15.6 km/h 28.5 km/h 97 % 0 mm 39.00 W/m2
09:55 -9.3 °C -9.6 °C 34493.2 hPa North 12.9 km/h 33.6 km/h 97 % 0 mm 37.00 W/m2
10:00 -9.3 °C -9.6 °C 34496.6 hPa NNE 10.3 km/h 20.8 km/h 97 % 0 mm 35.00 W/m2
10:05 -9.3 °C -9.6 °C 34500 hPa NNE 10.3 km/h 15.6 km/h 97 % 0 mm 39.00 W/m2
10:10 -9.3 °C -9.6 °C 34510.1 hPa North 7.7 km/h 23.3 km/h 97 % 0 mm 39.00 W/m2
10:15 -9.3 °C -9.6 °C 34510.1 hPa NNW 7.7 km/h 23.3 km/h 97 % 0 mm 111.00 W/m2
10:20 -9.3 °C -9.6 °C 34510.1 hPa NNW 10.3 km/h 41.4 km/h 97 % 0 mm 114.00 W/m2
10:25 -9.3 °C -9.6 °C 34506.7 hPa NW 18.2 km/h 33.6 km/h 97 % 0 mm 81.00 W/m2
10:30 -9.3 °C -9.6 °C 34510.1 hPa NW 23.3 km/h 36.2 km/h 97 % 0 mm 116.00 W/m2
10:35 -9.3 °C -9.6 °C 34513.5 hPa NNW 23.3 km/h 33.6 km/h 97 % 0 mm 114.00 W/m2
10:40 -9.4 °C -9.7 °C 34516.9 hPa NNW 18.2 km/h 25.9 km/h 97 % 0 mm 156.00 W/m2
10:45 -9.3 °C -9.6 °C 34520.3 hPa North 15.6 km/h 20.8 km/h 97 % 0 mm 130.00 W/m2
10:50 -9.4 °C -9.7 °C 34520.3 hPa NNE 10.3 km/h 18.2 km/h 97 % 0 mm 171.00 W/m2
10:55 -9.3 °C -9.6 °C 34523.7 hPa NNE 10.3 km/h 28.5 km/h 97 % 0 mm 172.00 W/m2
11:00 -9.3 °C -9.6 °C 34520.3 hPa North 10.3 km/h 28.5 km/h 97 % 0 mm 141.00 W/m2
11:05 -9.3 °C -9.6 °C 34520.3 hPa North 10.3 km/h 23.3 km/h 97 % 0 mm 192.00 W/m2
11:10 -9.4 °C -9.7 °C 34516.9 hPa North 15.6 km/h 23.3 km/h 97 % 0 mm 218.00 W/m2
11:15 -9.3 °C -9.6 °C 34520.3 hPa NNE 12.9 km/h 20.8 km/h 97 % 0 mm 237.00 W/m2
11:20 -9.3 °C -9.6 °C 34520.3 hPa NNW 12.9 km/h 20.8 km/h 97 % 0 mm 255.00 W/m2
11:25 -9.3 °C -9.6 °C 34516.9 hPa NNW 12.9 km/h 18.2 km/h 97 % 0 mm 278.00 W/m2
11:30 -9.3 °C -9.6 °C 34516.9 hPa NW 12.9 km/h 20.8 km/h 97 % 0 mm 318.00 W/m2
11:35 -9.2 °C -9.4 °C 34523.7 hPa NW 10.3 km/h 15.6 km/h 97 % 0 mm 323.00 W/m2
11:40 -9.2 °C -9.5 °C 34523.7 hPa NW 10.3 km/h 28.5 km/h 97 % 0 mm 318.00 W/m2
11:45 -9.2 °C -9.4 °C 34523.7 hPa North 10.3 km/h 20.8 km/h 97 % 0 mm 364.00 W/m2
11:50 -9.2 °C -9.5 °C 34523.7 hPa NNW 10.3 km/h 31.1 km/h 97 % 0 mm 411.00 W/m2
11:55 -9.2 °C -9.4 °C 34527 hPa NNW 12.9 km/h 36.2 km/h 97 % 0 mm 392.00 W/m2
12:00 -9.2 °C -9.4 °C 34527 hPa NNW 18.2 km/h 33.6 km/h 97 % 0 mm 262.00 W/m2
12:05 -9.1 °C -9.4 °C 34527 hPa NNW 18.2 km/h 31.1 km/h 97 % 0 mm 283.00 W/m2
12:10 -9.1 °C -9.3 °C 34523.7 hPa NNW 18.2 km/h 33.6 km/h 97 % 0 mm 471.00 W/m2
12:15 -9.1 °C -9.3 °C 34523.7 hPa North 18.2 km/h 23.3 km/h 97 % 0 mm 404.00 W/m2
12:20 -9 °C -9.3 °C 34523.7 hPa North 15.6 km/h 25.9 km/h 97 % 0 mm 439.00 W/m2
12:25 -8.9 °C -9.2 °C 34520.3 hPa NNE 12.9 km/h 18.2 km/h 97 % 0 mm 422.00 W/m2
12:30 -8.7 °C -9 °C 34523.7 hPa NNE 12.9 km/h 25.9 km/h 97 % 0 mm 417.00 W/m2
12:35 -8.6 °C -8.8 °C 34523.7 hPa NNE 12.9 km/h 20.8 km/h 97 % 0 mm 543.00 W/m2
12:40 -8.4 °C -8.7 °C 34520.3 hPa NNE 12.9 km/h 18.2 km/h 97 % 0 mm 462.00 W/m2
12:45 -8.3 °C -8.7 °C 34523.7 hPa NNE 12.9 km/h 20.8 km/h 96 % 0 mm 457.00 W/m2
12:50 -8.1 °C -8.4 °C 34520.3 hPa NNE 12.9 km/h 25.9 km/h 96 % 0 mm 473.00 W/m2
12:55 -7.9 °C -8.3 °C 34520.3 hPa NNE 15.6 km/h 36.2 km/h 95 % 0 mm 480.00 W/m2
13:00 -7.7 °C -8.4 °C 34523.7 hPa NNE 15.6 km/h 25.9 km/h 93 % 0 mm 462.00 W/m2
13:05 -7.7 °C -8.5 °C 34523.7 hPa NNE 15.6 km/h 25.9 km/h 91 % 0 mm 476.00 W/m2
13:10 -7.8 °C -8.8 °C 34527 hPa NNE 15.6 km/h 28.5 km/h 90 % 0 mm 494.00 W/m2
13:15 -7.9 °C -8.8 °C 34523.7 hPa North 15.6 km/h 23.3 km/h 90 % 0 mm 482.00 W/m2
13:20 -8 °C -8.9 °C 34523.7 hPa NNE 12.9 km/h 31.1 km/h 90 % 0 mm 476.00 W/m2
13:25 -8.1 °C -9 °C 34523.7 hPa NNE 12.9 km/h 28.5 km/h 90 % 0 mm 503.00 W/m2
13:30 -8.1 °C -9.1 °C 34523.7 hPa North 15.6 km/h 23.3 km/h 89 % 0 mm 508.00 W/m2
13:35 -8.3 °C -9.3 °C 34523.7 hPa NNW 15.6 km/h 38.8 km/h 89 % 0 mm 510.00 W/m2
13:40 -8.7 °C -9.6 °C 34520.3 hPa NNW 18.2 km/h 33.6 km/h 90 % 0 mm 494.00 W/m2
13:45 -8.7 °C -9.6 °C 34523.7 hPa NW 20.8 km/h 33.6 km/h 91 % 0 mm 501.00 W/m2
13:50 -8.7 °C -9.4 °C 34523.7 hPa NNW 18.2 km/h 28.5 km/h 92 % 0 mm 522.00 W/m2
13:55 -8.7 °C -9.4 °C 34523.7 hPa NNW 18.2 km/h 31.1 km/h 92 % 0 mm 517.00 W/m2
14:00 -8.7 °C -9.4 °C 34523.7 hPa NNW 15.6 km/h 20.8 km/h 92 % 0 mm 513.00 W/m2
14:05 -8.7 °C -9.4 °C 34520.3 hPa NNW 12.9 km/h 25.9 km/h 92 % 0 mm 471.00 W/m2
14:10 -8.7 °C -9.4 °C 34520.3 hPa NNW 12.9 km/h 41.4 km/h 92 % 0 mm 513.00 W/m2
14:15 -8.7 °C -9.4 °C 34516.9 hPa NW 15.6 km/h 44.1 km/h 92 % 0 mm 515.00 W/m2
14:20 -8.7 °C -9.6 °C 34516.9 hPa NNW 20.8 km/h 38.8 km/h 91 % 0 mm 504.00 W/m2
14:25 -8.8 °C -9.5 °C 34516.9 hPa NW 23.3 km/h 41.4 km/h 92 % 0 mm 494.00 W/m2
14:30 -8.8 °C -9.5 °C 34516.9 hPa NW 25.9 km/h 46.7 km/h 92 % 0 mm 452.00 W/m2
14:35 -8.8 °C -9.5 °C 34513.5 hPa NNW 25.9 km/h 41.4 km/h 92 % 0 mm 455.00 W/m2
14:40 -8.8 °C -9.4 °C 34516.9 hPa NNW 23.3 km/h 38.8 km/h 93 % 0 mm 432.00 W/m2
14:45 -8.7 °C -9.4 °C 34513.5 hPa NNW 20.8 km/h 38.8 km/h 92 % 0 mm 431.00 W/m2
14:50 -8.7 °C -9.4 °C 34513.5 hPa NNW 18.2 km/h 28.5 km/h 92 % 0 mm 424.00 W/m2
14:55 -8.7 °C -9.4 °C 34510.1 hPa NNW 15.6 km/h 33.6 km/h 92 % 0 mm 413.00 W/m2
15:00 -8.5 °C -9.2 °C 34503.3 hPa NNW 10.3 km/h 20.8 km/h 92 % 0 mm 429.00 W/m2
15:05 -8.5 °C -9.2 °C 34503.3 hPa NNW 7.7 km/h 36.2 km/h 92 % 0 mm 443.00 W/m2
15:10 -8.4 °C -9.2 °C 34506.7 hPa North 10.3 km/h 33.6 km/h 92 % 0 mm 454.00 W/m2
15:15 -8.4 °C -9.3 °C 34500 hPa North 10.3 km/h 20.8 km/h 91 % 0 mm 504.00 W/m2
15:20 -8.3 °C -9.2 °C 34496.6 hPa North 7.7 km/h 18.2 km/h 91 % 0 mm 499.00 W/m2
15:25 -8.3 °C -9.2 °C 34496.6 hPa North 5.1 km/h 15.6 km/h 91 % 0 mm 327.00 W/m2
15:30 -8.4 °C -9.3 °C 34493.2 hPa NNW 7.7 km/h 33.6 km/h 90 % 0 mm 547.00 W/m2
15:35 -8.5 °C -9.3 °C 34493.2 hPa North 12.9 km/h 31.1 km/h 91 % 0 mm 524.00 W/m2
Meteocoruña
Agradecimientos a Weather Underground - 2.5 mb